[[[{"header":{"parameterUnit":"kt","parameterCategory":2,"dx":1,"dy":1,"la1":30.253999710083008,"la2":30.299108505249023,"lo1":-89.0895004272461,"lo2":-89.04439544677734,"nx":28,"ny":28,"refTime":"2022-10-24T21:00:00:Z","depth":"0","parameterNumber":2,"parameterNumberName":"U-component_of_CURRENTS"},"data":[-0.0873,-0.0877,-0.0902,-0.0857,-0.0856,-0.0773,-0.0761,-0.0679,-0.0586,-0.023,0.0047,0.0211,0.0014,-0.0403,-0.0682,-0.0733,-0.0865,-0.0863,-0.1029,-0.1037,-0.1075,-0.1111,-0.1013,-0.0757,-0.0757,-0.0893,-0.0894,-0.0895,-0.0929,-0.096,-0.1007,-0.1056,-0.1064,-0.1164,-0.127,-0.1223,-0.1161,-0.1116,-0.0997,-0.0651,-0.0601,-0.0697,-0.0776,-0.0858,-0.0933,-0.0966,-0.1071,-0.1059,-0.1082,-0.0967,-0.0696,-0.0696,-0.0696,-0.0696,-0.0696,-0.0696,-0.1037,-0.1046,-0.1109,-0.1179,-0.1265,-0.133,-0.1354,-0.1515,-0.1584,-0.1594,-0.1709,-0.1482,-0.143,-0.1252,-0.1305,-0.1299,-0.1446,-0.1287,-0.1373,-0.15,-0.1365,-0.1332,-0.1235,-0.1238,-0.1241,-0.1243,-0.1245,0,-0.111,-0.1135,-0.1221,-0.1287,-0.1378,-0.1512,-0.1679,-0.176,-0.2021,-0.2078,-0.2103,-0.2059,-0.2022,-0.1795,-0.1754,-0.1707,-0.1877,-0.1814,-0.1877,-0.1513,-0.1545,-0.1465,-0.1558,-0.157,-0.1575,-0.1579,-0.1582,-0.1584,-0.1161,-0.1201,-0.1367,-0.1411,-0.1485,-0.163,-0.173,-0.1969,-0.2084,-0.2311,-0.2348,-0.2391,-0.2315,-0.2285,-0.2174,-0.2085,-0.2149,-0.1933,-0.1832,-0.1806,-0.1833,-0.1929,-0.1878,-0.1636,-0.163,-0.1624,-0.162,0,-0.1175,-0.1284,-0.1404,-0.1591,-0.1647,-0.1722,-0.1946,-0.2052,-0.2207,-0.2328,-0.2356,-0.2474,-0.2445,-0.2434,-0.2435,-0.2383,-0.2295,-0.2283,-0.203,-0.1962,-0.1805,-0.1849,-0.2017,-0.1962,-0.2174,-0.2171,-0.2168,0,-0.1255,-0.134,-0.15,-0.1553,-0.1679,-0.1824,-0.1964,-0.2072,-0.2227,-0.2317,-0.2387,-0.2429,-0.2435,-0.2445,-0.2387,-0.2298,-0.2414,-0.2181,-0.2146,-0.195,-0.1915,-0.1922,-0.1955,-0.2365,-0.2365,-0.2364,-0.2363,0,-0.1234,-0.1426,-0.1524,-0.1581,-0.1772,-0.184,-0.1938,-0.2066,-0.2146,-0.2267,-0.2324,-0.2382,-0.2367,-0.239,-0.228,-0.2251,-0.2327,-0.2276,-0.2124,-0.2111,-0.1934,-0.1897,-0.2022,-0.2362,-0.2362,-0.2362,-0.2361,0,-0.129,-0.139,-0.1509,-0.1708,-0.1748,-0.1808,-0.196,-0.2031,-0.2136,-0.2167,-0.2217,-0.2191,-0.2221,-0.212,-0.2164,-0.2117,-0.2089,-0.2059,-0.2061,-0.1905,-0.1789,-0.1694,-0.1734,-0.1746,-0.2027,-0.2024,-0.2022,0,-0.1258,-0.1399,-0.1475,-0.1599,-0.1676,-0.1743,-0.1813,-0.188,-0.1918,-0.1994,-0.1963,-0.1982,-0.1884,-0.1878,-0.1915,-0.187,-0.1928,-0.1842,-0.1911,-0.1913,-0.1788,-0.1868,-0.1646,-0.171,-0.1991,-0.1994,-0.1997,0,-0.122,-0.1388,-0.1394,-0.1471,-0.1565,-0.1614,-0.168,-0.1758,-0.1826,-0.181,-0.1894,-0.1826,-0.1813,-0.1795,-0.1734,-0.1775,-0.1867,-0.1722,-0.1723,-0.1787,-0.2004,-0.1843,-0.1848,-0.1859,-0.1863,-0.1867,-0.1972,0,-0.1262,-0.1332,-0.137,-0.1467,-0.1511,-0.1566,-0.1603,-0.1637,-0.1633,-0.165,-0.1678,-0.1619,-0.1629,-0.1587,-0.1537,-0.1615,-0.1595,-0.1558,-0.1563,-0.1624,-0.1651,-0.1671,-0.1413,-0.1412,-0.141,-0.1409,0,0,-0.1197,-0.1283,-0.1322,-0.139,-0.1434,-0.1441,-0.1501,-0.1511,-0.1533,-0.1562,-0.1513,-0.1504,-0.1452,-0.1488,-0.148,-0.1439,-0.1468,-0.1469,-0.1564,-0.1581,-0.1597,-0.1629,-0.1649,-0.1407,-0.1406,-0.1406,-0.1405,0,-0.1213,-0.1254,-0.1308,-0.135,-0.1407,-0.1427,-0.1442,-0.1477,-0.1481,-0.1497,-0.1457,-0.1447,-0.1415,-0.1408,-0.1393,-0.1418,-0.1423,-0.1386,-0.1487,-0.1549,-0.1568,-0.1584,-0.162,-0.1639,-0.1402,-0.1402,-0.1402,0,-0.1191,-0.1245,-0.1268,-0.134,-0.1362,-0.141,-0.1389,-0.1426,-0.1455,-0.1403,-0.1425,-0.1387,-0.1347,-0.135,-0.1346,-0.1339,-0.1404,-0.1343,-0.1349,-0.1393,-0.1457,-0.1477,-0.1495,-0.1275,-0.1275,-0.1275,0,0,-0.1202,-0.1256,-0.1304,-0.1343,-0.1365,-0.1382,-0.1397,-0.1405,-0.1411,-0.1408,-0.1394,-0.1368,-0.1345,-0.1345,-0.1319,-0.133,-0.1355,-0.1332,-0.1338,-0.1344,-0.139,-0.1455,-0.1473,-0.1275,-0.1275,-0.1275,0,0,-0.1197,-0.1273,-0.1278,-0.1331,-0.1361,-0.1388,-0.1403,-0.1402,-0.1397,-0.1392,-0.1362,-0.1356,-0.1349,-0.1327,-0.1332,-0.1323,-0.1291,-0.129,-0.1361,-0.1368,-0.1373,-0.1438,-0.1304,0,0,0,0,0,-0.1234,-0.127,-0.1275,-0.1288,-0.1346,-0.1389,-0.1393,-0.1395,-0.1382,-0.1395,-0.1372,-0.1353,-0.1319,-0.1323,-0.132,-0.1338,-0.1277,-0.1277,-0.1276,-0.1367,-0.1374,-0.1381,0,0,0,0,0,0,-0.124,-0.1257,-0.1273,-0.1306,-0.1319,-0.1388,-0.1365,-0.1365,-0.138,-0.1378,-0.1358,-0.1353,-0.1333,-0.1324,-0.1321,-0.1339,-0.1305,-0.1277,-0.1277,-0.1276,-0.1369,-0.1376,-0.1381,0,0,0,0,0,-0.1244,-0.1258,-0.1357,-0.1304,-0.1316,-0.133,-0.1364,-0.1364,-0.137,-0.1354,-0.1349,-0.1373,-0.1334,-0.1329,-0.1322,-0.1342,-0.1307,-0.1306,-0.1277,-0.1277,-0.1276,-0.1372,0,0,0,0,0,0,-0.1247,-0.1244,-0.1358,-0.136,-0.1297,-0.1325,-0.1332,-0.1363,-0.1343,-0.1342,-0.1367,-0.1365,-0.1334,-0.1331,-0.1328,-0.1344,-0.1308,-0.1307,-0.1307,-0.1277,-0.1276,-0.1276,0,0,0,0,0,0,-0.1237,-0.1246,-0.1359,-0.135,-0.1351,-0.1321,-0.1327,-0.132,-0.1341,-0.1355,-0.1355,-0.1366,-0.1329,-0.1332,-0.1329,-0.1317,-0.131,-0.1309,-0.1308,-0.1307,-0.1276,-0.1276,0,0,0,0,0,0,-0.124,-0.1248,-0.1349,-0.1349,-0.135,-0.1373,-0.1311,-0.1361,-0.1365,-0.1354,-0.1363,-0.1362,-0.133,-0.1328,-0.1331,-0.132,-0.1318,-0.131,-0.1309,-0.1308,-0.1308,0,0,0,0,0,0,0,-0.1243,-0.1197,-0.135,-0.1349,-0.135,-0.1384,-0.1384,-0.1384,-0.1364,-0.1364,-0.1363,-0.1362,-0.1315,-0.1314,-0.1313,-0.1322,0,0,-0.131,-0.1309,0,0,0,0,0,0,0,0,-0.1193,-0.1196,-0.135,-0.1351,-0.1352,-0.1384,-0.1384,-0.1384,-0.1364,-0.1364,-0.1363,-0.1362,-0.1315,-0.1314,-0.1313,0,0,0,0,0,0,0,0,0,0,0,0,0,0,0,-0.135,-0.1351,0,-0.1384,-0.1384,-0.1384,-0.1364,-0.1364,-0.1363,-0.1363,-0.1315,-0.1314,-0.1313,0,0,0,0,0,0,0,0,0,0,0,0,0,0,0,0,0,0,0,0,0,0,0,0,0,0,0,0,0,0,0,0,0,0,0,0,0,0,0,0,0,0,0,0,0,0,0,0,0,0,0,0,0,0,0,0,0,0,0,0,0,0,0,0,0,0,0,0,0]}],[{"header":{"parameterUnit":"kt","parameterCategory":2,"dx":1,"dy":1,"la1":30.253999710083008,"la2":30.299108505249023,"lo1":-89.0895004272461,"lo2":-89.04439544677734,"nx":28,"ny":28,"refTime":"2022-10-24T21:00:00:Z","depth":"0","parameterNumber":3,"parameterNumberName":"V-component_of_CURRENTS"},"data":[0.0021,-0.0095,-0.0159,-0.0408,-0.0467,-0.0453,-0.0372,-0.01,0.0299,0.1124,0.1772,0.2372,0.3059,0.3744,0.4346,0.441,0.4573,0.443,0.4518,0.4189,0.4118,0.405,0.4129,0.4728,0.4729,0.5126,0.513,0.5133,0.0052,-0.0028,-0.013,-0.0214,-0.0323,-0.0279,-0.0219,-0.0084,0.007,0.0518,0.0814,0.1699,0.2386,0.2937,0.3548,0.3708,0.3661,0.3755,0.3745,0.3846,0.3309,0.3373,0.3822,0.3821,0.3821,0.3821,0.3821,0.382,0.0106,0.007,0.0035,-0.0057,-0.0108,-0.0115,-0.0097,-0.0028,0.0032,0.028,0.0425,0.0915,0.1631,0.2272,0.2419,0.286,0.2672,0.2989,0.2985,0.29,0.3114,0.2499,0.2747,0.2744,0.2742,0.2741,0.2739,0,0.0211,0.0212,0.0185,0.0119,0.0082,0.006,0.0044,0.0045,0.0127,0.0172,0.036,0.0591,0.1059,0.1579,0.1965,0.2117,0.2283,0.2186,0.2418,0.2707,0.2704,0.2881,0.2141,0.2331,0.2326,0.2322,0.232,0.2318,0.0339,0.0304,0.0306,0.0273,0.0269,0.024,0.0219,0.0271,0.0264,0.0357,0.0358,0.0566,0.0818,0.123,0.1508,0.1814,0.1915,0.207,0.2057,0.2321,0.2367,0.231,0.2448,0.2267,0.2274,0.2279,0.2283,0,0.0414,0.0432,0.0394,0.0417,0.041,0.0376,0.0377,0.0358,0.0397,0.0394,0.0402,0.0568,0.0792,0.0995,0.1214,0.1352,0.1709,0.1632,0.1791,0.1843,0.2239,0.2259,0.2457,0.2643,0.1842,0.1846,0.185,0,0.0529,0.05,0.0524,0.0506,0.0462,0.0515,0.0477,0.0504,0.0539,0.0538,0.0629,0.0676,0.0851,0.0991,0.1134,0.1372,0.1307,0.1501,0.1535,0.1657,0.168,0.1918,0.1949,0.1372,0.1372,0.1371,0.137,0,0.0607,0.0608,0.0572,0.0575,0.0602,0.0595,0.0611,0.0656,0.0659,0.0707,0.0696,0.0821,0.0866,0.0978,0.1158,0.1134,0.1317,0.1293,0.1483,0.1493,0.1651,0.1676,0.1999,0.1369,0.1369,0.1368,0.1368,0,0.0687,0.0684,0.0651,0.0652,0.0653,0.0656,0.0672,0.0697,0.0757,0.0779,0.0837,0.0885,0.0981,0.101,0.1161,0.1129,0.12,0.1261,0.1266,0.1392,0.1418,0.1645,0.1749,0.2,0.1339,0.1338,0.1338,0,0.0732,0.0704,0.0736,0.0723,0.0712,0.0762,0.0783,0.0821,0.0851,0.0869,0.0958,0.098,0.1054,0.106,0.1116,0.1188,0.1232,0.1193,0.1273,0.1276,0.1383,0.1441,0.1604,0.1724,0.1328,0.1329,0.133,0,0.0763,0.0779,0.0777,0.0766,0.0804,0.0807,0.0845,0.0873,0.0873,0.0934,0.0941,0.104,0.1058,0.1092,0.114,0.1177,0.1221,0.119,0.1191,0.1227,0.1282,0.1412,0.1432,0.1213,0.1214,0.1214,0.1322,0,0.0797,0.0795,0.0796,0.0812,0.0827,0.0828,0.087,0.0887,0.0913,0.0939,0.0984,0.1043,0.1083,0.1119,0.1152,0.119,0.1203,0.1199,0.1196,0.1207,0.1256,0.1262,0.1194,0.1194,0.1194,0.1194,0,0,0.0811,0.0812,0.0843,0.0842,0.0847,0.0884,0.088,0.0911,0.0942,0.0954,0.0966,0.1046,0.1089,0.1146,0.1161,0.1181,0.1198,0.1175,0.1205,0.1206,0.1207,0.1253,0.1259,0.1195,0.1195,0.1195,0.1195,0,0.0827,0.0841,0.0842,0.0854,0.087,0.089,0.0892,0.0918,0.0935,0.0961,0.0997,0.1036,0.1085,0.1126,0.1155,0.1179,0.1198,0.1192,0.1184,0.1205,0.1206,0.1207,0.1253,0.1258,0.1195,0.1195,0.1195,0,0.0842,0.0853,0.0862,0.0876,0.0893,0.0903,0.092,0.0931,0.0944,0.0978,0.1004,0.1037,0.1085,0.1122,0.114,0.1141,0.1197,0.1179,0.118,0.117,0.1191,0.1192,0.1193,0.1177,0.1177,0.1176,0,0,0.0848,0.0857,0.0879,0.0881,0.0889,0.0914,0.0922,0.0935,0.0962,0.0973,0.1,0.1037,0.1077,0.1096,0.1127,0.1158,0.1173,0.1176,0.1177,0.1177,0.1168,0.1189,0.119,0.1176,0.1176,0.1176,0,0,0.0855,0.0883,0.089,0.0892,0.0907,0.0936,0.094,0.0953,0.0979,0.0984,0.1019,0.1028,0.1064,0.1083,0.1069,0.1132,0.113,0.1133,0.1117,0.1119,0.1119,0.11,0.1087,0,0,0,0,0,0.0883,0.0879,0.0885,0.0888,0.0914,0.0931,0.0936,0.0955,0.0965,0.0966,0.0999,0.1013,0.1086,0.1075,0.1083,0.1101,0.1166,0.1168,0.1169,0.1156,0.1157,0.1158,0,0,0,0,0,0,0.0885,0.0889,0.0885,0.0912,0.0918,0.0932,0.0948,0.0954,0.0965,0.0968,0.1007,0.1014,0.1037,0.1072,0.1079,0.1096,0.1085,0.1167,0.1168,0.1169,0.1156,0.1158,0.1158,0,0,0,0,0,0.0886,0.0889,0.0924,0.0913,0.0918,0.0944,0.0949,0.0953,0.0964,0.1,0.1007,0.0978,0.1036,0.1045,0.1077,0.1092,0.108,0.1083,0.1168,0.1169,0.117,0.1157,0,0,0,0,0,0,0.0887,0.0897,0.0925,0.0928,0.0913,0.0943,0.0948,0.0953,0.0996,0.1002,0.0972,0.0974,0.1036,0.1042,0.1048,0.109,0.1076,0.1079,0.1081,0.1169,0.1169,0.117,0,0,0,0,0,0,0.0895,0.0899,0.0927,0.0926,0.0929,0.0943,0.0947,0.0973,0.0997,0.0967,0.0969,0.0972,0.1032,0.1041,0.1046,0.1085,0.1073,0.1076,0.1078,0.1079,0.1169,0.117,0,0,0,0,0,0,0.0897,0.09,0.0926,0.0928,0.0931,0.0962,0.0967,0.0996,0.0984,0.0965,0.0985,0.0985,0.103,0.1035,0.1044,0.108,0.1084,0.1073,0.1075,0.1076,0.1077,0,0,0,0,0,0,0,0.0899,0.0872,0.0909,0.0929,0.0932,0.0952,0.0953,0.0954,0.0984,0.0985,0.0985,0.0985,0.1059,0.1062,0.1065,0.1077,0,0,0.1073,0.1074,0,0,0,0,0,0,0,0,0.0871,0.0871,0.0909,0.0909,0.091,0.0952,0.0953,0.0954,0.0984,0.0985,0.0985,0.0985,0.106,0.1062,0.1064,0,0,0,0,0,0,0,0,0,0,0,0,0,0,0,0.0909,0.0909,0,0.0952,0.0953,0.0954,0.0984,0.0985,0.0985,0.0985,0.1061,0.1062,0.1064,0,0,0,0,0,0,0,0,0,0,0,0,0,0,0,0,0,0,0,0,0,0,0,0,0,0,0,0,0,0,0,0,0,0,0,0,0,0,0,0,0,0,0,0,0,0,0,0,0,0,0,0,0,0,0,0,0,0,0,0,0,0,0,0,0,0,0,0,0]}]],[[{"header":{"parameterUnit":"kt","parameterCategory":2,"dx":1,"dy":1,"la1":30.253999710083008,"la2":30.299108505249023,"lo1":-89.0895004272461,"lo2":-89.04439544677734,"nx":28,"ny":28,"refTime":"2022-10-24T21:00:00:Z","depth":"2","parameterNumber":2,"parameterNumberName":"U-component_of_CURRENTS"},"data":[-0.0918,-0.092,-0.0945,-0.0896,-0.0892,-0.0859,-0.0842,-0.0837,-0.0819,-0.0732,-0.0554,-0.0581,-0.0725,-0.0528,-0.0634,-0.0503,-0.0714,-0.0481,-0.1002,-0.1036,-0.1077,-0.1299,-0.1137,0,0,0,0,0,-0.097,-0.0986,-0.1033,-0.1084,-0.1096,-0.1189,-0.1292,-0.1304,-0.1285,-0.1294,-0.1212,-0.1035,-0.0888,-0.0972,-0.0799,-0.0885,-0.0906,-0.0916,-0.0922,-0.0969,-0.1013,-0.0877,-0.054,-0.0539,-0.0538,-0.0537,0,0,-0.1062,-0.1071,-0.1132,-0.1203,-0.1289,-0.1351,-0.1372,-0.156,-0.1637,-0.1699,-0.1775,-0.1597,-0.1731,-0.1381,-0.1373,-0.1349,-0.1479,-0.1472,-0.1491,-0.1516,-0.1403,-0.1309,-0.1206,-0.1209,-0.1212,-0.1214,-0.1216,0,-0.1133,-0.1157,-0.1243,-0.1307,-0.1397,-0.153,-0.1696,-0.1777,-0.2037,-0.21,-0.2131,-0.2093,-0.2056,-0.1827,-0.1779,-0.172,-0.1918,-0.18,-0.2225,-0.1661,-0.1571,-0.1525,-0.1533,-0.1539,-0.1544,-0.1548,-0.1551,-0.1553,-0.1181,-0.1221,-0.1385,-0.1428,-0.1503,-0.1647,-0.1746,-0.1984,-0.2098,-0.2325,-0.2362,-0.2405,-0.2335,-0.2301,-0.2189,-0.21,-0.2207,-0.1922,-0.182,-0.2115,-0.2069,-0.2057,-0.2046,-0.1607,-0.16,-0.1595,-0.159,0,-0.1194,-0.1302,-0.1422,-0.1607,-0.1663,-0.1738,-0.1961,-0.2066,-0.222,-0.234,-0.2369,-0.2485,-0.2455,-0.2442,-0.244,-0.2387,-0.2344,-0.2285,-0.2019,-0.195,-0.2077,-0.206,-0.2184,-0.218,-0.2176,-0.2173,-0.217,0,-0.1271,-0.1357,-0.1516,-0.1569,-0.1694,-0.1838,-0.1978,-0.2085,-0.2239,-0.2328,-0.2396,-0.2439,-0.2442,-0.2451,-0.2391,-0.2302,-0.2417,-0.2184,-0.2149,-0.1942,-0.1907,-0.22,-0.218,-0.2367,-0.2366,-0.2365,-0.2364,0,-0.1251,-0.1442,-0.154,-0.1597,-0.1787,-0.1855,-0.1951,-0.2077,-0.2157,-0.2277,-0.2333,-0.2389,-0.2375,-0.2395,-0.2285,-0.2256,-0.233,-0.2279,-0.2128,-0.2115,-0.1926,-0.1888,-0.2364,-0.2363,-0.2363,-0.2363,-0.2363,0,-0.1307,-0.1407,-0.1526,-0.1723,-0.1763,-0.1822,-0.1973,-0.2043,-0.2146,-0.2176,-0.2225,-0.2198,-0.2227,-0.2127,-0.2169,-0.2124,-0.2095,-0.2064,-0.2067,-0.1912,-0.1797,-0.1688,-0.1724,-0.2034,-0.2031,-0.2029,-0.2027,0,-0.1276,-0.1416,-0.1492,-0.1615,-0.1691,-0.1757,-0.1826,-0.1892,-0.1929,-0.2004,-0.1972,-0.199,-0.1893,-0.1887,-0.1924,-0.1879,-0.1935,-0.1851,-0.1917,-0.192,-0.1796,-0.1876,-0.164,-0.17,-0.1996,-0.1999,-0.2002,0,-0.1239,-0.1406,-0.1412,-0.1488,-0.1581,-0.1628,-0.1693,-0.177,-0.1838,-0.182,-0.1903,-0.1836,-0.1822,-0.1804,-0.1744,-0.1783,-0.1875,-0.1731,-0.1732,-0.1795,-0.201,-0.185,-0.1855,-0.1867,-0.1871,-0.1875,-0.1977,0,-0.1282,-0.1351,-0.1388,-0.1483,-0.1526,-0.1581,-0.1616,-0.1649,-0.1646,-0.1661,-0.1688,-0.163,-0.1639,-0.1598,-0.1548,-0.1625,-0.1605,-0.1569,-0.1573,-0.1634,-0.166,-0.1679,-0.1425,-0.1423,-0.1422,-0.1421,0,0,-0.1218,-0.1301,-0.1338,-0.1406,-0.1449,-0.1455,-0.1514,-0.1524,-0.1545,-0.1573,-0.1524,-0.1515,-0.1464,-0.1499,-0.1491,-0.145,-0.1479,-0.148,-0.1574,-0.1591,-0.1607,-0.1638,-0.1658,-0.1418,-0.1418,-0.1417,-0.1417,0,-0.1233,-0.1272,-0.1325,-0.1366,-0.1422,-0.1441,-0.1455,-0.1489,-0.1493,-0.1509,-0.1468,-0.1458,-0.1426,-0.1419,-0.1405,-0.143,-0.1434,-0.1398,-0.1498,-0.1559,-0.1578,-0.1594,-0.1629,-0.1648,-0.1413,-0.1414,-0.1414,0,-0.121,-0.1264,-0.1285,-0.1354,-0.1376,-0.1423,-0.1401,-0.1438,-0.1466,-0.1415,-0.1437,-0.1398,-0.1359,-0.1361,-0.1357,-0.135,-0.1415,-0.1355,-0.136,-0.1404,-0.1467,-0.1487,-0.1505,-0.1287,-0.1287,-0.1287,0,0,-0.1222,-0.1274,-0.132,-0.1358,-0.1379,-0.1395,-0.1409,-0.1417,-0.1422,-0.1419,-0.1405,-0.1379,-0.1357,-0.1356,-0.1331,-0.1342,-0.1366,-0.1344,-0.135,-0.1355,-0.1401,-0.1465,-0.1483,-0.1287,-0.1287,-0.1287,0,0,-0.1217,-0.1289,-0.1293,-0.1345,-0.1374,-0.14,-0.1415,-0.1414,-0.1409,-0.1403,-0.1373,-0.1367,-0.136,-0.1338,-0.1343,-0.1334,-0.1302,-0.1301,-0.1372,-0.1379,-0.1384,-0.1448,-0.1315,0,0,0,0,0,-0.1251,-0.1286,-0.129,-0.1303,-0.1358,-0.1401,-0.1405,-0.1406,-0.1392,-0.1406,-0.1383,-0.1364,-0.133,-0.1334,-0.1331,-0.1349,-0.1289,-0.1288,-0.1288,-0.1378,-0.1385,-0.1392,0,0,0,0,0,0,-0.1257,-0.1273,-0.1289,-0.1321,-0.1333,-0.14,-0.1376,-0.1377,-0.1391,-0.1389,-0.1369,-0.1363,-0.1343,-0.1335,-0.1332,-0.135,-0.1316,-0.1288,-0.1288,-0.1288,-0.1381,-0.1387,-0.1392,0,0,0,0,0,-0.1261,-0.1274,-0.1369,-0.1319,-0.133,-0.1343,-0.1375,-0.1375,-0.1382,-0.1365,-0.136,-0.1384,-0.1344,-0.134,-0.1333,-0.1352,-0.1318,-0.1316,-0.1288,-0.1288,-0.1288,-0.1384,0,0,0,0,0,0,-0.1264,-0.1261,-0.137,-0.1373,-0.1311,-0.1338,-0.1345,-0.1374,-0.1355,-0.1353,-0.1377,-0.1376,-0.1345,-0.1341,-0.1338,-0.1355,-0.1319,-0.1318,-0.1317,-0.1288,-0.1288,-0.1288,0,0,0,0,0,0,-0.1254,-0.1263,-0.1371,-0.1362,-0.1363,-0.1334,-0.134,-0.1333,-0.1353,-0.1366,-0.1366,-0.1377,-0.134,-0.1343,-0.134,-0.1328,-0.132,-0.1319,-0.1319,-0.1318,-0.1288,-0.1288,0,0,0,0,0,0,-0.1257,-0.1265,-0.1361,-0.1362,-0.1362,-0.1384,-0.1324,-0.1372,-0.1375,-0.1366,-0.1373,-0.1372,-0.1341,-0.1339,-0.1342,-0.1331,-0.1329,-0.132,-0.132,-0.1319,-0.1319,0,0,0,0,0,0,0,-0.126,-0.1215,-0.1363,-0.1361,-0.1362,-0.1395,-0.1395,-0.1395,-0.1375,-0.1374,-0.1373,-0.1373,-0.1326,-0.1325,-0.1324,-0.1333,0,0,-0.132,-0.132,0,0,0,0,0,0,0,0,-0.1211,-0.1214,-0.1363,-0.1364,-0.1364,-0.1395,-0.1395,-0.1395,-0.1375,-0.1374,-0.1374,-0.1373,-0.1326,-0.1325,-0.1324,0,0,0,0,0,0,0,0,0,0,0,0,0,0,0,-0.1363,-0.1364,0,-0.1395,-0.1395,-0.1395,-0.1375,-0.1374,-0.1374,-0.1373,-0.1325,-0.1325,-0.1324,0,0,0,0,0,0,0,0,0,0,0,0,0,0,0,0,0,0,0,0,0,0,0,0,0,0,0,0,0,0,0,0,0,0,0,0,0,0,0,0,0,0,0,0,0,0,0,0,0,0,0,0,0,0,0,0,0,0,0,0,0,0,0,0,0,0,0,0,0]}],[{"header":{"parameterUnit":"kt","parameterCategory":2,"dx":1,"dy":1,"la1":30.253999710083008,"la2":30.299108505249023,"lo1":-89.0895004272461,"lo2":-89.04439544677734,"nx":28,"ny":28,"refTime":"2022-10-24T21:00:00:Z","depth":"2","parameterNumber":3,"parameterNumberName":"V-component_of_CURRENTS"},"data":[-0.0161,-0.0272,-0.0336,-0.0573,-0.0624,-0.0722,-0.063,-0.0607,-0.0485,-0.0412,-0.0085,0.0363,0.0742,0.0706,0.0757,0.0866,0.0908,0.0852,0.1261,0.0925,0.0932,0.1075,0.0983,0,0,0,0,0,-0.0121,-0.016,-0.0262,-0.0348,-0.0469,-0.0406,-0.0338,-0.037,-0.0344,-0.0139,0.0074,0.0337,0.071,0.0989,0.1085,0.1216,0.1073,0.1287,0.1019,0.1028,0.1038,0.0973,0.0938,0.0938,0.0938,0.0938,0,0,-0.0025,-0.0059,-0.0088,-0.0182,-0.0233,-0.0232,-0.021,-0.0221,-0.0189,-0.011,0.0181,0.0501,0.0654,0.1136,0.1274,0.1388,0.1457,0.1461,0.1453,0.145,0.1415,0.1414,0.1492,0.1495,0.1498,0.15,0.1502,0,0.0086,0.0093,0.0064,0.0005,-0.003,-0.0051,-0.0069,-0.0069,0.0007,0.0032,0.0203,0.041,0.0761,0.1011,0.1356,0.147,0.1439,0.1487,0.1682,0.112,0.1104,0.1116,0.1116,0.1131,0.1132,0.1133,0.1134,0.1134,0.0221,0.0189,0.0196,0.0164,0.0159,0.0129,0.0107,0.0155,0.0146,0.0231,0.023,0.0436,0.0663,0.1074,0.1231,0.1501,0.1571,0.1494,0.1424,0.1596,0.1613,0.16,0.1588,0.1147,0.1145,0.1144,0.1143,0,0.0301,0.0321,0.0281,0.0305,0.0299,0.0264,0.0261,0.024,0.0277,0.0269,0.0278,0.0441,0.0664,0.0867,0.1085,0.122,0.1412,0.1496,0.124,0.1244,0.1565,0.1559,0.1691,0.1697,0.1702,0.1705,0.1709,0,0.0419,0.0387,0.0413,0.0394,0.0349,0.04,0.0359,0.0383,0.0416,0.041,0.0503,0.0546,0.0725,0.0863,0.1005,0.1241,0.1178,0.1367,0.14,0.116,0.1153,0.1219,0.1215,0.1243,0.1242,0.1242,0.1241,0,0.0495,0.0496,0.0458,0.0461,0.0483,0.0476,0.049,0.0531,0.0531,0.0578,0.0567,0.0692,0.0738,0.0851,0.1029,0.1006,0.1187,0.1164,0.1349,0.1359,0.1163,0.1157,0.124,0.124,0.124,0.1239,0.1239,0,0.0572,0.0569,0.0535,0.0532,0.0533,0.0534,0.0547,0.057,0.0627,0.0648,0.0706,0.0755,0.085,0.088,0.1031,0.0999,0.107,0.1131,0.1136,0.1257,0.1283,0.1133,0.1146,0.121,0.1209,0.1208,0.1208,0,0.0614,0.0586,0.0617,0.0603,0.0591,0.0638,0.0657,0.0692,0.0722,0.0739,0.0826,0.0848,0.0922,0.0929,0.0985,0.1057,0.1101,0.1062,0.1143,0.1146,0.1249,0.1305,0.1052,0.1137,0.1198,0.1199,0.12,0,0.0642,0.0657,0.0656,0.0645,0.0681,0.0683,0.0718,0.0745,0.0744,0.0805,0.0811,0.0908,0.0928,0.096,0.1008,0.1044,0.109,0.1059,0.106,0.1097,0.1152,0.1277,0.1296,0.1083,0.1083,0.1083,0.1192,0,0.0672,0.0671,0.0673,0.0689,0.0703,0.0704,0.0744,0.0761,0.0787,0.0812,0.0857,0.0915,0.0954,0.0989,0.1021,0.1059,0.1072,0.1068,0.1066,0.1076,0.1126,0.1132,0.1063,0.1063,0.1063,0.1063,0,0,0.0685,0.0687,0.0719,0.0717,0.0722,0.076,0.0756,0.0785,0.0817,0.0829,0.0842,0.092,0.0962,0.1016,0.1031,0.105,0.1067,0.1045,0.1074,0.1075,0.1076,0.1123,0.1128,0.1063,0.1063,0.1063,0.1064,0,0.0701,0.0715,0.0717,0.0729,0.0746,0.0766,0.0768,0.0794,0.0811,0.0837,0.0873,0.0912,0.0958,0.0998,0.1026,0.1048,0.1068,0.1061,0.1053,0.1074,0.1075,0.1076,0.1122,0.1127,0.1064,0.1064,0.1064,0,0.0715,0.0727,0.0736,0.0751,0.0768,0.0777,0.0796,0.0808,0.0821,0.0855,0.088,0.0914,0.0959,0.0995,0.1013,0.1013,0.1067,0.105,0.105,0.1041,0.1062,0.1063,0.1064,0.1048,0.1048,0.1048,0,0,0.072,0.0731,0.0753,0.0756,0.0764,0.0789,0.0798,0.0812,0.0839,0.085,0.0878,0.0913,0.0952,0.0971,0.1,0.1029,0.1045,0.1047,0.1048,0.1048,0.1039,0.106,0.1062,0.1047,0.1047,0.1047,0,0,0.0728,0.0757,0.0765,0.0767,0.0783,0.0812,0.0816,0.083,0.0856,0.0862,0.0897,0.0906,0.094,0.0959,0.0946,0.1006,0.1004,0.1007,0.0992,0.0993,0.0994,0.0975,0.0964,0,0,0,0,0,0.0757,0.0753,0.076,0.0763,0.079,0.0806,0.0811,0.0832,0.0843,0.0845,0.0877,0.0891,0.0963,0.0952,0.096,0.0976,0.1039,0.104,0.1042,0.1029,0.103,0.1031,0,0,0,0,0,0,0.0759,0.0763,0.076,0.0787,0.0793,0.0807,0.0825,0.0831,0.0843,0.0846,0.0885,0.0892,0.0915,0.0949,0.0956,0.0972,0.0962,0.1039,0.104,0.1042,0.1029,0.103,0.1031,0,0,0,0,0,0.076,0.0764,0.0799,0.0788,0.0793,0.082,0.0825,0.083,0.0842,0.0877,0.0884,0.0857,0.0914,0.0922,0.0954,0.0968,0.0958,0.096,0.104,0.1041,0.1042,0.1029,0,0,0,0,0,0,0.0761,0.0771,0.0801,0.0803,0.0789,0.082,0.0825,0.083,0.0873,0.0879,0.0851,0.0852,0.0914,0.092,0.0926,0.0966,0.0954,0.0956,0.0958,0.1041,0.1042,0.1042,0,0,0,0,0,0,0.0769,0.0773,0.0802,0.0803,0.0806,0.082,0.0824,0.0848,0.0874,0.0845,0.0847,0.0851,0.091,0.0918,0.0923,0.096,0.0951,0.0953,0.0955,0.0956,0.1041,0.1042,0,0,0,0,0,0,0.0771,0.0774,0.0802,0.0805,0.0807,0.084,0.0843,0.0872,0.0863,0.0843,0.0864,0.0864,0.0908,0.0913,0.0921,0.0955,0.0958,0.0951,0.0953,0.0954,0.0955,0,0,0,0,0,0,0,0.0773,0.0745,0.0784,0.0806,0.0809,0.0828,0.0829,0.083,0.0863,0.0863,0.0863,0.0864,0.0938,0.094,0.0943,0.0952,0,0,0.0951,0.0952,0,0,0,0,0,0,0,0,0.0744,0.0745,0.0784,0.0784,0.0785,0.0828,0.0829,0.083,0.0863,0.0863,0.0863,0.0864,0.0938,0.094,0.0942,0,0,0,0,0,0,0,0,0,0,0,0,0,0,0,0.0784,0.0784,0,0.0828,0.0829,0.0829,0.0863,0.0863,0.0863,0.0864,0.0939,0.0941,0.0942,0,0,0,0,0,0,0,0,0,0,0,0,0,0,0,0,0,0,0,0,0,0,0,0,0,0,0,0,0,0,0,0,0,0,0,0,0,0,0,0,0,0,0,0,0,0,0,0,0,0,0,0,0,0,0,0,0,0,0,0,0,0,0,0,0,0,0,0,0]}]],[[{"header":{"parameterUnit":"kt","parameterCategory":2,"dx":1,"dy":1,"la1":30.253999710083008,"la2":30.299108505249023,"lo1":-89.0895004272461,"lo2":-89.04439544677734,"nx":28,"ny":28,"refTime":"2022-10-24T21:00:00:Z","depth":"4","parameterNumber":2,"parameterNumberName":"U-component_of_CURRENTS"},"data":[-0.0897,-0.0935,-0.0956,-0.0938,-0.0945,-0.1007,-0.1076,-0.122,-0.1232,-0.1452,-0.1401,-0.1597,-0.1517,-0.1669,-0.1488,-0.1493,-0.1519,-0.1575,-0.157,-0.1692,-0.1709,-0.1725,-0.1623,0,0,0,0,0,-0.0936,-0.0947,-0.0997,-0.106,-0.1127,-0.1165,-0.1316,-0.1413,-0.1624,-0.1617,-0.1735,-0.1702,-0.1647,-0.1693,-0.1529,-0.1712,-0.1658,-0.1521,-0.1618,-0.1703,-0.1722,-0.1616,0,0,0,0,0,0,-0.0983,-0.1015,-0.1095,-0.1167,-0.1249,-0.1282,-0.1367,-0.1466,-0.157,-0.1843,-0.1857,-0.1927,-0.2027,-0.1896,-0.1832,-0.1725,-0.1684,-0.1645,-0.1666,-0.1685,-0.159,-0.1496,-0.142,0,0,0,0,0,-0.1037,-0.1098,-0.1167,-0.1259,-0.1341,-0.1427,-0.1553,-0.1603,-0.1808,-0.1991,-0.2065,-0.2069,-0.2044,-0.198,-0.1895,-0.1823,-0.1959,-0.1882,-0.1892,-0.1831,-0.1777,-0.1744,-0.1744,-0.1795,-0.1797,-0.1799,-0.18,0,-0.1097,-0.1139,-0.13,-0.1346,-0.1415,-0.1534,-0.1603,-0.1783,-0.1871,-0.2105,-0.2145,-0.222,-0.225,-0.2097,-0.2093,-0.1988,-0.1934,-0.1933,-0.1868,-0.1807,-0.177,-0.1765,-0.1759,-0.1815,-0.1814,-0.1813,-0.1811,0,-0.1129,-0.1218,-0.1313,-0.1469,-0.1516,-0.1587,-0.1749,-0.1829,-0.1984,-0.2104,-0.2148,-0.2275,-0.2258,-0.2237,-0.2225,-0.2129,-0.2065,-0.1998,-0.2129,-0.2098,-0.1794,-0.1782,-0.1841,-0.1835,-0.183,-0.1826,-0.1823,0,-0.1198,-0.1265,-0.1413,-0.1443,-0.1543,-0.1647,-0.1756,-0.1844,-0.1987,-0.207,-0.2156,-0.2213,-0.2223,-0.2233,-0.2172,-0.2061,-0.2183,-0.1936,-0.1903,-0.2024,-0.2011,-0.201,-0.1995,-0.2137,-0.2137,-0.2136,-0.2136,0,-0.1222,-0.1351,-0.142,-0.1456,-0.1588,-0.1647,-0.1717,-0.1837,-0.1902,-0.2032,-0.2101,-0.215,-0.2165,-0.2172,-0.209,-0.2071,-0.2118,-0.208,-0.1901,-0.1887,-0.2002,-0.1987,-0.2135,-0.2135,-0.2135,-0.2135,-0.2135,0,-0.1268,-0.1328,-0.1414,-0.1539,-0.1568,-0.1621,-0.1744,-0.1796,-0.1903,-0.1943,-0.2,-0.2004,-0.2035,-0.1965,-0.1991,-0.1962,-0.1936,-0.1913,-0.1914,-0.1737,-0.1646,-0.179,-0.1885,-0.1883,-0.1881,-0.1879,-0.1878,0,-0.126,-0.1339,-0.1386,-0.1476,-0.1528,-0.158,-0.1639,-0.1699,-0.1747,-0.1822,-0.1809,-0.1845,-0.1768,-0.178,-0.1803,-0.1775,-0.1812,-0.1751,-0.18,-0.1801,-0.1648,-0.1699,-0.1784,-0.1852,-0.1855,-0.1857,-0.1859,0,-0.1243,-0.1346,-0.136,-0.1407,-0.1468,-0.1498,-0.1559,-0.162,-0.1681,-0.1686,-0.1758,-0.1715,-0.1717,-0.1705,-0.1664,-0.1695,-0.1767,-0.1662,-0.1662,-0.1701,-0.1871,-0.1689,-0.1686,-0.1768,-0.1771,-0.1774,-0.1841,0,-0.1277,-0.1329,-0.1349,-0.14,-0.1434,-0.1468,-0.1502,-0.1538,-0.1551,-0.1567,-0.1602,-0.1567,-0.1581,-0.1552,-0.1516,-0.1577,-0.1563,-0.1537,-0.1534,-0.1586,-0.1601,-0.1615,-0.1425,-0.1424,-0.1423,-0.1422,0,0,-0.125,-0.129,-0.131,-0.1343,-0.1371,-0.1387,-0.1428,-0.1444,-0.1465,-0.149,-0.1467,-0.1475,-0.1441,-0.1467,-0.1466,-0.1439,-0.1462,-0.1461,-0.154,-0.1553,-0.1565,-0.1584,-0.1599,-0.142,-0.142,-0.1419,-0.1419,0,-0.1246,-0.1271,-0.1299,-0.1323,-0.1357,-0.1369,-0.1384,-0.1408,-0.1421,-0.1445,-0.1419,-0.1422,-0.1411,-0.1403,-0.1393,-0.1422,-0.1424,-0.1405,-0.1482,-0.1528,-0.1543,-0.1556,-0.1577,-0.1591,-0.1416,-0.1417,-0.1417,0,-0.123,-0.1242,-0.1259,-0.129,-0.1309,-0.1343,-0.1328,-0.1358,-0.1383,-0.135,-0.1386,-0.1364,-0.1338,-0.1348,-0.1352,-0.1345,-0.1404,-0.1358,-0.1363,-0.1394,-0.1442,-0.1458,-0.1472,-0.1299,-0.1299,-0.1299,0,0,-0.1222,-0.1244,-0.1267,-0.1289,-0.1307,-0.132,-0.1333,-0.134,-0.1347,-0.1354,-0.1353,-0.1344,-0.1332,-0.1338,-0.1325,-0.1342,-0.1358,-0.1347,-0.1353,-0.1358,-0.1391,-0.144,-0.1454,-0.1299,-0.1299,-0.1299,0,0,-0.1212,-0.1238,-0.1248,-0.1276,-0.1296,-0.1302,-0.1322,-0.1325,-0.1337,-0.1343,-0.1324,-0.1322,-0.1333,-0.1319,-0.1318,-0.1325,-0.1297,-0.1297,-0.135,-0.1357,-0.1362,-0.1406,-0.1291,0,0,0,0,0,-0.1215,-0.1235,-0.1244,-0.1251,-0.1279,-0.1299,-0.1303,-0.1312,-0.1313,-0.133,-0.1326,-0.1312,-0.131,-0.1309,-0.1308,-0.1326,-0.1295,-0.1296,-0.1297,-0.1366,-0.1373,-0.1379,0,0,0,0,0,0,-0.1217,-0.1225,-0.1243,-0.125,-0.1257,-0.1298,-0.1285,-0.1288,-0.1311,-0.1313,-0.1313,-0.1311,-0.1295,-0.1308,-0.1307,-0.1325,-0.1291,-0.1296,-0.1296,-0.1297,-0.1369,-0.1374,-0.1379,0,0,0,0,0,-0.1219,-0.1225,-0.1272,-0.125,-0.1256,-0.1271,-0.1285,-0.1287,-0.1309,-0.1294,-0.1295,-0.1318,-0.1296,-0.1295,-0.1308,-0.1326,-0.1292,-0.1292,-0.1296,-0.1296,-0.1297,-0.1371,0,0,0,0,0,0,-0.1221,-0.1222,-0.1273,-0.1275,-0.1249,-0.127,-0.1274,-0.1286,-0.1289,-0.129,-0.1296,-0.1297,-0.1296,-0.1295,-0.1294,-0.1328,-0.1292,-0.1292,-0.1292,-0.1296,-0.1297,-0.1297,0,0,0,0,0,0,-0.1219,-0.1224,-0.1274,-0.1273,-0.1274,-0.1268,-0.1272,-0.127,-0.1288,-0.129,-0.1291,-0.1296,-0.1292,-0.1295,-0.1295,-0.1291,-0.1292,-0.1292,-0.1292,-0.1292,-0.1297,-0.1297,0,0,0,0,0,0,-0.1221,-0.1225,-0.1272,-0.1273,-0.1275,-0.1294,-0.1265,-0.1291,-0.13,-0.1289,-0.13,-0.13,-0.1292,-0.1291,-0.1295,-0.1291,-0.1291,-0.1292,-0.1292,-0.1292,-0.1292,0,0,0,0,0,0,0,-0.1223,-0.1197,-0.1265,-0.1274,-0.1275,-0.1292,-0.1292,-0.1292,-0.13,-0.13,-0.13,-0.13,-0.1294,-0.1293,-0.1293,-0.1292,0,0,-0.1292,-0.1292,0,0,0,0,0,0,0,0,-0.1195,-0.1197,-0.1265,-0.1265,-0.1266,-0.1292,-0.1292,-0.1292,-0.13,-0.13,-0.13,-0.13,-0.1294,-0.1293,-0.1293,0,0,0,0,0,0,0,0,0,0,0,0,0,0,0,-0.1265,-0.1265,0,-0.1292,-0.1292,-0.1292,-0.13,-0.13,-0.13,-0.13,-0.1294,-0.1293,-0.1293,0,0,0,0,0,0,0,0,0,0,0,0,0,0,0,0,0,0,0,0,0,0,0,0,0,0,0,0,0,0,0,0,0,0,0,0,0,0,0,0,0,0,0,0,0,0,0,0,0,0,0,0,0,0,0,0,0,0,0,0,0,0,0,0,0,0,0,0,0]}],[{"header":{"parameterUnit":"kt","parameterCategory":2,"dx":1,"dy":1,"la1":30.253999710083008,"la2":30.299108505249023,"lo1":-89.0895004272461,"lo2":-89.04439544677734,"nx":28,"ny":28,"refTime":"2022-10-24T21:00:00:Z","depth":"4","parameterNumber":3,"parameterNumberName":"V-component_of_CURRENTS"},"data":[-0.1211,-0.128,-0.1299,-0.1388,-0.1441,-0.1528,-0.1562,-0.1479,-0.1379,-0.1195,-0.0985,-0.0795,-0.0426,-0.0467,-0.0035,0.0026,0.0086,0.0462,0.0463,0.0587,0.0593,0.0597,0.05,0,0,0,0,0,-0.121,-0.124,-0.1319,-0.1392,-0.1495,-0.1534,-0.1564,-0.1533,-0.1381,-0.1217,-0.1059,-0.0798,-0.0407,-0.0182,-0.0048,0.0094,0.0336,0.0247,0.034,0.0591,0.0597,0.05,0,0,0,0,0,0,-0.1205,-0.1246,-0.1307,-0.1375,-0.1469,-0.1525,-0.1519,-0.142,-0.1327,-0.1004,-0.0925,-0.0535,-0.0295,-0.0002,0.0171,0.0327,0.035,0.0356,0.0374,0.0382,0.027,0.017,0.0153,0,0,0,0,0,-0.1174,-0.1222,-0.1244,-0.1345,-0.1394,-0.1427,-0.1399,-0.1374,-0.1171,-0.1029,-0.0739,-0.048,-0.0215,0.0079,0.0261,0.0421,0.0603,0.062,0.0623,0.0588,0.054,0.0547,0.054,0.0619,0.062,0.062,0.0621,0,-0.1145,-0.117,-0.1221,-0.1266,-0.1261,-0.1263,-0.1254,-0.1104,-0.1044,-0.0743,-0.0686,-0.0395,-0.0183,0.0117,0.0342,0.0574,0.0579,0.0635,0.0597,0.0549,0.0556,0.0547,0.0539,0.0625,0.0625,0.0625,0.0624,0,-0.1131,-0.112,-0.1144,-0.1109,-0.111,-0.1114,-0.1032,-0.0987,-0.0809,-0.068,-0.0616,-0.0287,-0.0058,0.0172,0.04,0.0467,0.0605,0.0621,0.0613,0.0625,0.0554,0.0543,0.0633,0.0631,0.063,0.0629,0.0628,0,-0.1074,-0.1079,-0.1054,-0.1054,-0.1065,-0.0945,-0.0914,-0.0794,-0.0633,-0.0541,-0.0304,-0.0187,0.0066,0.0229,0.0349,0.0483,0.054,0.0534,0.0549,0.0555,0.0546,0.0572,0.0563,0.064,0.0639,0.0638,0.0637,0,-0.1039,-0.0981,-0.0992,-0.0963,-0.0855,-0.0838,-0.0768,-0.0599,-0.0526,-0.0326,-0.0244,-0.0047,0.0052,0.0184,0.0346,0.0338,0.0533,0.0537,0.0527,0.0522,0.0563,0.0556,0.0636,0.0636,0.0636,0.0635,0.0635,0,-0.0946,-0.0921,-0.0912,-0.083,-0.0803,-0.0769,-0.0643,-0.056,-0.0369,-0.028,-0.0138,-0.0021,0.012,0.0137,0.0327,0.0287,0.035,0.0416,0.0422,0.036,0.0354,0.0428,0.048,0.0478,0.0477,0.0475,0.0474,0,-0.0923,-0.0887,-0.0808,-0.0772,-0.0736,-0.0611,-0.0544,-0.0424,-0.0309,-0.0202,-0.0069,0.0021,0.0073,0.0114,0.019,0.0285,0.0338,0.0275,0.0406,0.041,0.0337,0.0371,0.0339,0.0452,0.0455,0.0457,0.0458,0,-0.0883,-0.0778,-0.0773,-0.0742,-0.0601,-0.056,-0.0475,-0.0357,-0.03,-0.0179,-0.01,0.0009,0.0071,0.0115,0.0175,0.0235,0.0306,0.0251,0.0254,0.0292,0.0432,0.0354,0.036,0.0329,0.0331,0.0332,0.0443,0,-0.0781,-0.0747,-0.0737,-0.0632,-0.0577,-0.0536,-0.0408,-0.0347,-0.0274,-0.0188,-0.0087,-0.0004,0.0081,0.0109,0.0141,0.0216,0.0223,0.0231,0.0239,0.0261,0.0305,0.0317,0.018,0.018,0.018,0.018,0,0,-0.0754,-0.0707,-0.0619,-0.0574,-0.0532,-0.0415,-0.0383,-0.0311,-0.0202,-0.0158,-0.0141,0.0001,0.0048,0.0136,0.0148,0.0167,0.02,0.0175,0.0242,0.0248,0.0255,0.0298,0.0309,0.018,0.018,0.018,0.018,0,-0.0696,-0.064,-0.0627,-0.0561,-0.0462,-0.0394,-0.0378,-0.0272,-0.0226,-0.0153,-0.0102,-0.0038,0.0041,0.0099,0.0135,0.0164,0.0201,0.0174,0.0181,0.024,0.0247,0.0253,0.0296,0.0306,0.018,0.018,0.018,0,-0.0632,-0.0564,-0.0556,-0.0455,-0.04,-0.0346,-0.0294,-0.0245,-0.0199,-0.014,-0.0082,-0.0031,0.0031,0.0089,0.0115,0.0118,0.0204,0.0171,0.0171,0.0173,0.0234,0.0241,0.0247,0.017,0.0169,0.0169,0,0,-0.0584,-0.0558,-0.0446,-0.0434,-0.0397,-0.0311,-0.0283,-0.0232,-0.0168,-0.0145,-0.0088,-0.0033,0.002,0.0054,0.0099,0.0148,0.0178,0.0169,0.0169,0.0169,0.0171,0.0232,0.0239,0.0169,0.0169,0.0169,0,0,-0.0566,-0.0458,-0.0418,-0.0395,-0.0322,-0.0233,-0.023,-0.0182,-0.0132,-0.0128,-0.0065,-0.0048,0.0006,0.0035,0.0023,0.0106,0.0105,0.0109,0.0093,0.0094,0.0094,0.0086,0.0054,0,0,0,0,0,-0.0461,-0.0468,-0.0432,-0.0416,-0.0315,-0.0245,-0.0232,-0.0179,-0.0164,-0.0154,-0.0099,-0.0076,0.0043,0.0033,0.0047,0.007,0.0163,0.0164,0.0165,0.0155,0.0156,0.0157,0,0,0,0,0,0,-0.0453,-0.0433,-0.0432,-0.0343,-0.032,-0.0245,-0.0214,-0.02,-0.0164,-0.0158,-0.0086,-0.0074,-0.0032,0.0029,0.0041,0.0061,0.005,0.0163,0.0164,0.0165,0.0156,0.0156,0.0157,0,0,0,0,0,-0.0447,-0.043,-0.0284,-0.0343,-0.0323,-0.0247,-0.0215,-0.0202,-0.0175,-0.0103,-0.009,-0.0136,-0.0034,-0.002,0.0036,0.0055,0.0042,0.0046,0.0164,0.0164,0.0165,0.0156,0,0,0,0,0,0,-0.0443,-0.0424,-0.0278,-0.027,-0.0343,-0.025,-0.0234,-0.0204,-0.0121,-0.0107,-0.0151,-0.0147,-0.0035,-0.0023,-0.0013,0.0051,0.0035,0.004,0.0042,0.0164,0.0165,0.0165,0,0,0,0,0,0,-0.0432,-0.0417,-0.0274,-0.0277,-0.0269,-0.0253,-0.0239,-0.0194,-0.0121,-0.0174,-0.0168,-0.015,-0.0047,-0.0026,-0.0018,0.0049,0.003,0.0034,0.0037,0.0039,0.0165,0.0165,0,0,0,0,0,0,-0.0425,-0.0412,-0.0279,-0.0273,-0.0265,-0.0172,-0.0213,-0.0114,-0.0123,-0.0179,-0.0122,-0.0122,-0.0051,-0.0041,-0.0021,0.0041,0.0047,0.003,0.0033,0.0035,0.0037,0,0,0,0,0,0,0,-0.0419,-0.0516,-0.0324,-0.0269,-0.0263,-0.0194,-0.0192,-0.019,-0.0123,-0.0123,-0.0122,-0.0122,0.0006,0.001,0.0015,0.0035,0,0,0.003,0.0032,0,0,0,0,0,0,0,0,-0.052,-0.0517,-0.0323,-0.0321,-0.032,-0.0194,-0.0192,-0.0191,-0.0123,-0.0123,-0.0123,-0.0122,0.0007,0.0011,0.0015,0,0,0,0,0,0,0,0,0,0,0,0,0,0,0,-0.0323,-0.0322,0,-0.0194,-0.0192,-0.0191,-0.0123,-0.0123,-0.0123,-0.0122,0.0008,0.0011,0.0014,0,0,0,0,0,0,0,0,0,0,0,0,0,0,0,0,0,0,0,0,0,0,0,0,0,0,0,0,0,0,0,0,0,0,0,0,0,0,0,0,0,0,0,0,0,0,0,0,0,0,0,0,0,0,0,0,0,0,0,0,0,0,0,0,0,0,0,0,0]}]]]